Location: Arcones
(41.1182°N, 3.7238°W)
Time: 19:51:08
(UTC+00:00)

YAOGAN 1 - Pass Details

Date: 23 March 2026
Orbit: 604 x 606 km, 97.8° (Epoch: 21 April)

Event Time Altitude Azimuth Distance (km) Brightness Sun altitude
Rises 19:34:40 0° 199° (SSW) 2,849 6.0 -12.8°
Reaches altitude 10° 19:37:14 10° 215° (SW) 1,950 5.4 -13.3°
Maximum altitude 19:40:32 22° 266° (W) 1,348 5.2 -13.9°
Drops below altitude 10° 19:43:50 10° 317° (NW) 1,962 6.0 -14.5°
Sets 19:46:27 0° 333° (NNW) 2,871 6.6 -15.0°
